RH
46 46 48 50 51 52 53 52 51 51 52 55 58 61 63 62 62 61 61 63 67 73 79 85 88 87 86 89 90 91 89 88 86 83 76 72 73 73 71 72 71 63 54 49 47 46 46 46 46 46 46 44 42 42 40 42 42 44 56 73 88 95 97 102 97 83 85 99 102 101 101 98 96 97 99 100 101 95 76 53 38 29 24 22 21
51 53 53 54 54 55 58 59 58 57 56 57 60 62 64 65 65 65 65 66 69 76 83 88 91 90 90 92 93 94 92 89 87 84 79 75 74 76 75 74 75 68 58 53 51 50 49 50 50 49 49 47 45 45 44 45 46 44 50 66 83 96 100 100 101 95 89 95 101 101 101 101 98 97 99 100 101 102 93 73 51 37 30 26 25
52 54 54 55 55 57 60 63 64 64 61 59 60 62 65 67 68 69 69 71 74 81 88 92 94 94 94 96 97 98 96 91 88 85 82 80 79 79 79 78 77 70 62 57 55 54 54 54 54 53 52 50 47 48 48 48 50 50 51 61 78 93 101 100 99 100 96 93 98 101 101 101 100 99 99 100 100 101 101 89 67 48 38 32 29
48 50 51 52 54 58 62 64 67 68 64 61 61 62 65 68 71 73 75 77 81 87 92 95 97 98 99 100 100 100 99 96 91 86 83 84 84 83 81 80 78 71 64 61 58 58 59 58 58 57 56 54 52 51 53 53 54 56 58 67 81 93 100 101 99 100 99 93 93 100 101 100 100 101 100 100 100 100 101 99 85 64 48 40 34
44 45 47 51 53 56 60 63 66 67 65 63 62 62 65 68 73 78 81 83 86 90 95 98 100 100 100 100 100 100 100 100 96 90 86 84 86 86 83 80 77 71 66 64 63 63 63 62 63 63 60 59 57 56 57 59 61 64 68 77 88 95 99 100 99 100 100 96 93 96 100 101 101 101 101 100 99 99 100 101 97 82 62 49 41
44 45 47 51 53 55 58 61 63 64 63 63 63 64 66 70 77 83 85 87 90 93 98 99 100 100 100 100 100 100 100 101 99 96 89 85 86 86 82 79 75 72 69 68 68 68 68 69 69 69 67 64 63 64 65 68 71 74 79 87 94 98 100 100 100 100 100 100 97 96 98 101 101 101 101 100 99 99 100 100 101 96 80 62 50
45 46 48 51 54 55 57 58 59 60 61 63 65 66 69 74 82 87 88 90 93 96 99 100 100 100 100 100 100 100 100 100 100 99 92 87 87 85 81 78 76 75 74 73 73 74 75 76 76 75 75 73 72 73 75 78 82 85 90 96 99 101 101 100 100 100 100 100 100 99 98 100 101 100 100 100 99 99 101 100 100 101 94 78 63
45 45 47 51 54 55 56 57 58 59 62 64 67 69 72 78 85 90 91 93 96 99 100 100 100 100 100 100 100 100 100 100 100 99 93 89 89 86 82 81 80 78 79 79 80 81 81 82 84 83 83 82 82 82 83 84 87 92 98 101 101 100 101 101 100 100 100 100 100 100 100 99 100 100 99 100 100 100 101 101 100 100 100 92 79
42 43 47 51 54 56 57 58 59 61 64 67 70 72 76 82 88 92 94 97 99 100 100 100 100 100 100 100 100 100 100 100 100 98 93 92 92 88 85 84 83 83 85 86 87 88 89 89 90 91 91 90 89 89 89 89 89 93 99 102 101 100 100 100 100 100 100 100 100 101 101 100 100 100 100 100 100 100 100 101 100 100 100 100 93
42 44 48 51 54 56 56 58 60 63 66 69 72 75 80 86 91 95 97 99 100 100 100 100 100 100 100 100 100 100 100 100 100 98 96 94 93 89 86 85 86 88 90 92 94 95 97 97 97 97 96 95 94 93 92 92 93 96 100 102 102 101 100 100 100 100 100 100 100 100 100 100 100 100 100 100 100 100 100 100 100 100 99 101 100
42 44 47 50 51 52 53 55 58 62 67 71 76 80 85 91 95 98 100 100 100 100 100 100 100 100 100 100 100 100 100 100 101 99 98 97 95 92 90 90 92 94 95 95 96 98 100 101 101 101 99 97 95 93 91 92 92 95 99 101 101 101 100 100 100 100 100 100 100 100 100 100 100 100 100 100 100 100 100 100 100 100 100 100 101
40 42 44 47 49 52 55 59 63 68 73 79 84 88 93 96 99 100 100 100 100 100 100 100 100 100 100 100 100 100 100 100 101 101 99 99 99 97 96 97 98 99 99 97 95 95 97 99 100 101 97 92 88 85 84 84 85 87 92 97 100 101 100 100 100 100 100 100 100 100 100 100 100 100 100 100 100 100 100 100 100 100 100 100 100
44 47 50 55 59 63 68 71 76 81 85 89 93 96 98 100 100 100 100 100 100 100 100 100 100 100 100 100 100 100 100 101 101 101 100 101 101 99 98 100 101 101 100 99 98 97 97 97 98 97 91 83 79 74 70 68 70 74 78 86 94 99 100 100 100 100 100 100 100 100 100 100 100 101 101 100 100 100 100 100 100 100 100 100 100
61 64 68 72 76 80 84 87 90 93 96 98 99 100 100 100 100 100 100 100 100 100 100 100 100 100 100 100 100 100 101 101 101 101 101 101 100 100 100 101 101 101 101 100 100 99 98 95 91 88 81 72 67 64 58 54 54 58 65 76 89 98 100 100 100 100 100 100 100 100 100 100 100 100 100 101 101 101 100 100 100 100 100 100 100
72 75 79 82 86 90 93 95 98 99 100 100 100 100 100 99 100 100 100 100 100 100 100 100 100 100 100 100 101 101 101 101 101 101 101 101 100 101 101 102 101 101 100 101 99 94 89 83 77 73 67 58 54 52 49 46 45 49 58 71 85 95 99 100 100 100 100 100 100 100 100 100 100 100 100 100 101 102 101 100 100 99 99 101 101
76 79 82 86 89 91 93 95 98 100 100 100 100 100 100 100 100 100 100 100 100 100 100 100 100 100 100 101 102 101 101 101 101 101 101 101 101 100 100 101 100 99 97 94 87 78 68 61 57 54 49 44 42 42 41 41 42 45 54 66 76 86 96 101 100 100 100 100 100 100 100 100 100 100 100 100 100 101 101 100 100 99 99 101 102
82 85 89 92 93 95 97 98 99 100 100 100 100 100 100 100 100 100 100 100 100 100 100 100 100 101 101 101 101 100 100 101 101 100 100 99 98 98 98 97 94 90 84 75 65 56 48 42 38 37 35 33 33 35 36 38 38 40 48 61 72 84 96 101 100 100 101 100 100 100 100 100 100 100 100 100 99 101 101 101 100 99 99 100 102
91 93 95 97 98 99 100 100 100 100 100 100 100 100 100 100 100 100 100 100 100 101 101 101 101 102 101 100 100 100 100 100 99 98 97 97 95 93 90 85 77 70 61 52 44 37 33 30 27 25 25 25 26 30 34 38 40 41 47 61 79 92 99 100 100 101 101 100 100 100 100 100 100 100 101 100 99 101 102 102 101 99 99 99 100
97 98 99 99 100 100 100 100 100 100 100 100 100 100 100 100 100 100 100 100 100 101 101 101 101 102 101 101 100 99 98 97 97 95 91 87 81 75 69 61 54 48 41 35 29 24 21 19 18 19 21 21 22 25 33 43 48 47 53 70 88 97 99 100 101 101 100 100 100 100 100 100 100 100 100 100 100 100 101 100 101 100 100 100 100
100 100 100 100 100 100 100 100 100 100 100 100 100 100 100 100 100 100 101 101 101 101 100 100 100 101 101 100 98 95 93 89 84 78 71 63 54 48 44 38 34 30 26 22 19 16 14 13 13 16 20 23 24 28 39 53 58 56 64 83 96 98 99 101 101 100 100 100 100 100 100 100 100 100 100 100 100 100 100 100 101 100 100 101 101
100 100 100 100 100 100 100 100 100 100 100 100 100 100 100 100 100 100 100 99 99 99 98 98 98 97 96 92 87 81 74 68 60 53 46 40 34 30 27 24 22 20 17 16 14 13 13 12 12 15 18 22 26 32 45 62 72 76 84 95 99 99 99 100 100 100 100 100 100 100 100 100 100 100 100 100 100 100 100 100 100 100 100 101 102
100 100 100 100 100 100 100 100 100 100 100 100 100 100 101 101 99 97 96 96 95 95 93 90 86 82 76 69 63 55 48 42 38 33 30 27 24 22 21 19 18 16 15 14 14 13 14 14 14 15 15 18 26 39 55 72 85 94 98 99 99 99 100 101 100 100 100 100 100 100 100 100 100 100 100 100 100 100 100 100 100 100 101 102 102
100 100 100 100 100 100 100 100 100 100 100 100 101 99 98 97 94 93 93 91 88 83 77 69 62 55 49 43 38 34 31 28 26 24 23 21 20 20 20 20 21 21 20 20 21 20 21 20 19 18 16 17 26 45 66 82 93 98 99 98 99 100 101 102 102 102 102 102 101 100 100 100 100 100 100 100 100 100 101 100 100 101 101 101 101
100 100 100 100 100 100 100 100 100 100 99 98 96 94 92 91 88 85 81 75 66 57 50 43 38 33 30 27 26 24 23 22 22 21 21 21 21 23 26 28 30 31 31 31 31 29 28 26 24 21 19 19 26 44 64 81 92 97 97 99 100 100 100 101 101 102 104 104 103 102 101 100 100 100 100 100 100 101 102 101 100 101 101 101 100
100 100 100 100 100 100 100 99 97 96 94 91 89 86 83 79 73 64 56 49 41 35 31 27 25 23 22 20 20 21 21 20 20 21 23 25 30 34 37 39 39 39 38 36 35 32 30 28 26 23 21 21 27 41 58 75 89 96 98 100 101 100 100 100 100 100 101 102 102 102 100 100 100 100 101 100 99 100 102 103 102 100 100 100 100
100 100 100 100 99 97 95 93 91 89 87 84 80 74 65 56 48 40 34 31 27 24 23 21 20 20 20 20 19 19 21 22 23 27 32 37 42 44 45 45 43 42 40 38 35 33 30 28 26 24 25 26 32 43 57 72 86 95 98 99 100 100 100 100 100 100 100 100 100 100 100 100 100 101 102 103 102 102 102 102 102 101 100 101 101
100 100 98 96 93 89 86 85 84 82 78 70 61 52 43 36 31 27 25 23 21 20 20 19 20 20 19 18 18 20 24 29 34 40 45 47 49 49 47 46 46 44 42 39 36 32 30 29 28 29 31 35 41 51 64 74 84 94 99 100 100 100 100 100 100 100 100 100 100 100 100 100 100 100 101 102 103 103 102 101 101 101 101 102 103
97 93 89 86 82 79 77 75 72 67 59 49 40 34 30 27 25 23 21 20 20 21 21 20 20 20 19 18 19 24 35 43 47 51 53 52 51 51 51 51 50 48 45 42 37 34 32 33 34 36 40 45 51 60 70 79 86 93 98 100 101 101 100 100 100 100 100 100 100 100 100 100 100 100 100 100 101 102 102 102 102 101 100 101 103
86 81 77 74 72 70 66 61 54 46 39 33 29 26 24 23 22 21 22 23 23 23 23 22 21 21 23 26 27 33 43 52 55 56 57 57 57 57 57 57 55 52 48 44 39 37 38 38 40 44 51 57 62 70 79 87 92 95 97 100 103 103 101 100 100 100 101 100 100 100 100 100 100 100 101 101 102 103 103 104 103 102 100 100 101
72 70 67 65 62 57 51 44 37 32 29 27 25 23 22 22 23 24 25 26 26 26 25 26 28 28 31 38 45 49 53 57 59 61 63 65 65 65 64 62 59 55 49 44 42 42 43 45 51 58 65 71 78 87 94 98 100 101 101 103 105 104 104 103 101 100 100 100 100 100 100 100 100 100 100 102 104 105 105 105 104 103 103 102 102
62 60 57 53 47 41 36 32 29 27 25 24 23 23 24 26 28 29 29 29 30 33 35 37 39 39 41 48 56 62 64 65 66 68 70 71 71 70 67 64 60 54 49 45 45 48 52 59 70 80 86 89 94 99 102 104 105 105 105 105 105 104 104 104 103 101 102 101 100 100 100 100 100 100 100 101 104 105 104 104 104 103 104 105 105
53 49 44 39 34 31 28 26 25 24 24 24 26 27 29 31 32 34 36 37 38 41 45 48 49 51 53 57 60 63 66 69 72 74 75 76 75 72 68 63 58 53 49 47 49 55 67 80 91 96 97 98 99 100 102 105 107 106 104 104 104 102 101 101 102 102 103 104 103 101 100 100 100 102 102 101 101 102 102 102 102 101 102 104 105
41 37 33 29 27 26 25 24 25 26 27 29 31 33 34 35 36 39 45 51 54 54 55 55 56 59 62 63 63 65 69 72 75 78 79 79 77 73 68 62 57 52 50 51 55 67 83 97 102 101 100 100 100 101 104 107 107 105 103 101 99 98 97 96 95 96 98 101 103 103 102 101 100 101 102 102 101 101 101 100 100 100 100 101 104
30 27 25 25 25 25 26 27 28 31 33 35 37 38 40 42 43 45 49 57 64 67 66 64 63 64 66 67 69 72 75 78 80 81 81 80 78 73 67 61 56 54 56 62 71 83 95 104 105 102 100 100 100 102 107 108 107 104 102 99 96 95 95 93 91 91 91 92 95 99 102 103 102 101 101 101 101 100 100 100 101 100 100 100 103
24 23 24 26 27 28 30 32 34 37 39 41 43 45 47 49 52 55 57 59 63 67 70 71 70 70 71 74 76 79 82 84 86 85 84 81 78 73 66 60 56 60 69 80 89 95 100 104 105 103 101 100 101 104 106 106 105 103 101 97 94 93 92 90 89 88 87 86 89 92 97 101 103 102 101 102 101 100 100 100 100 100 101 102 103
23 24 27 29 32 34 36 39 41 43 45 48 50 53 55 57 59 63 65 66 67 69 72 75 77 78 80 82 85 87 89 91 92 90 87 83 78 72 64 57 60 73 87 95 98 100 101 103 105 104 102 100 100 102 104 104 103 102 99 96 94 91 90 88 87 86 86 85 85 87 91 97 102 102 101 102 101 100 101 101 102 103 102 100 98
25 28 31 35 39 42 44 46 49 50 53 56 58 60 62 64 66 68 71 73 75 76 78 80 82 86 89 91 93 96 96 96 95 92 88 83 76 68 61 62 75 91 98 99 99 101 103 103 103 102 102 101 100 100 101 102 103 102 99 97 94 91 89 88 87 87 87 86 85 85 87 93 99 101 100 101 101 101 102 102 102 101 100 98 95
30 33 37 43 47 50 52 54 56 58 61 64 66 67 68 69 71 74 77 79 80 82 85 87 88 89 92 95 98 100 99 99 99 95 89 81 72 63 64 75 92 101 101 99 100 102 102 102 101 99 99 99 99 100 101 102 102 103 103 100 97 93 92 90 89 88 88 87 85 84 85 91 97 100 99 100 102 103 103 102 100 99 99 99 98
35 39 45 51 55 58 59 61 63 65 68 70 72 73 74 75 76 78 80 83 86 89 92 93 94 93 93 94 97 98 98 98 97 93 86 77 67 64 74 91 102 104 101 100 101 101 101 102 101 99 98 99 99 101 103 104 103 104 105 105 102 98 95 93 91 89 89 88 86 84 86 92 96 98 99 101 102 101 101 101 101 100 99 101 104
41 47 52 57 61 65 67 68 70 72 74 77 78 79 80 81 83 84 85 88 91 94 96 97 96 95 94 93 94 95 95 95 94 89 81 71 67 73 88 101 105 104 102 101 101 101 101 102 101 99 100 100 100 102 105 105 103 102 104 105 105 102 97 94 93 91 90 89 88 86 88 94 97 99 99 99 98 99 100 101 101 102 105 106 101
48 54 59 63 67 71 73 75 77 78 80 83 84 86 89 89 90 90 92 93 95 98 101 100 97 95 95 95 94 93 94 95 94 86 75 69 73 86 99 104 103 102 102 101 101 102 102 100 100 100 100 100 101 103 105 104 102 100 101 103 104 103 99 96 95 94 92 90 88 89 93 97 99 99 100 100 99 100 101 101 103 105 101 90 75
53 59 64 68 71 74 77 80 82 83 86 88 90 92 95 96 97 97 97 98 100 103 103 101 98 97 97 97 96 96 97 98 93 81 71 74 87 99 105 105 103 101 100 100 100 101 101 100 100 100 100 100 100 101 101 101 100 100 100 101 102 103 102 100 98 96 93 92 94 95 98 100 101 101 103 103 102 101 102 103 101 91 78 69 69
58 63 68 72 75 78 81 84 86 88 90 92 95 97 99 101 102 103 103 104 105 105 103 100 98 98 99 99 98 100 101 98 87 75 74 87 100 106 105 103 102 100 100 101 100 100 100 100 100 100 100 100 100 100 100 100 100 100 100 100 101 103 104 103 101 100 100 101 102 101 102 103 105 104 103 103 103 103 100 93 82 72 70 78 90
66 70 74 77 81 84 86 88 91 93 95 97 100 102 103 104 104 104 106 109 108 105 102 99 98 99 100 101 101 103 102 92 78 75 85 99 105 104 101 100 101 101 101 101 100 100 100 100 100 100 100 100 100 100 100 100 100 100 100 100 100 101 102 102 102 104 105 105 104 103 104 105 104 102 103 104 101 94 84 75 73 80 90 98 101
72 77 81 85 87 90 92 94 96 98 99 102 104 104 103 103 101 100 104 107 107 105 102 100 98 99 102 102 103 104 97 82 75 83 96 103 103 101 99 99 100 101 100 100 100 100 100 100 100 100 100 100 100 100 100 100 100 100 100 100 100 100 100 101 101 102 103 102 102 102 102 102 102 102 101 96 85 76 74 80 89 97 101 100 99
79 82 86 89 91 93 96 98 101 102 103 104 104 102 101 101 100 100 102 106 107 105 103 101 101 102 103 104 105 101 87 76 80 94 102 101 100 101 100 100 101 101 100 100 100 100 100 100 100 100 100 100 100 100 100 100 100 100 100 100 100 100 100 100 100 101 101 100 101 101 101 102 101 95 86 78 75 79 89 97 100 100 99 100 100
94 95 96 96 97 98 99 100 102 104 104 103 101 100 100 100 100 100 103 106 107 106 103 102 103 103 103 106 104 92 78 77 89 100 101 100 101 102 100 100 102 101 100 100 100 100 100 100 100 100 100 100 100 100 100 100 100 100 100 100 100 100 100 100 100 99 100 100 100 100 98 93 85 77 75 80 89 97 100 101 100 99 100 100 100
103 104 103 102 102 103 103 103 103 103 103 101 100 100 100 100 99 100 104 107 108 105 103 103 102 102 105 106 97 82 75 84 97 102 101 101 101 100 100 101 101 100 100 100 100 100 100 100 100 100 100 100 100 100 100 100 100 100 100 100 100 100 99 99 100 100 100 98 95 90 83 76 74 78 87 96 100 101 100 99 100 100 100 100 100
102 103 102 100 101 102 101 101 102 102 102 101 101 100 100 100 100 100 104 108 107 104 103 102 101 102 105 101 87 75 78 91 99 102 103 103 101 99 101 101 101 100 100 100 100 100 100 100 100 100 100 100 100 100 100 100 101 100 100 100 100 100 101 101 100 96 91 85 79 75 74 78 86 94 100 101 100 99 100 100 100 100 100 100 100
101 101 100 100 101 101 100 100 101 100 100 101 101 100 100 100 99 101 106 108 106 104 103 101 99 102 102 92 77 74 84 95 99 102 105 104 101 100 101 101 101 100 100 100 100 100 100 100 100 100 100 100 100 100 100 100 100 100 100 101 102 100 97 91 84 77 73 71 73 78 85 93 99 101 100 100 100 100 100 100 100 100 100 100 100
97 98 99 100 100 100 100 101 100 99 100 101 100 100 101 100 99 103 107 106 104 103 101 98 99 101 95 80 71 77 88 96 99 102 105 104 101 100 101 101 101 100 100 100 100 100 100 100 100 100 100 101 101 100 100 100 100 101 102 99 92 84 76 70 67 69 73 79 87 94 98 101 101 100 100 100 100 100 100 100 100 100 100 100 100
Wind_Speed
41 41 41 41 41 42 43 43 44 45 46 46 47 47 47 48 48 49 49 50 51 52 53 54 55 56 57 57 56 57 60 62 61 62 62 59 54 51 50 49 48 48 48 47 47 47 48 48 48 49 51 52 52 52 52 52 52 52 50 49 48 48 47 48 49 48 45 44 45 43 43 44 44 43 41 39 38 38 37 35 33 32 32 31 30
42 42 43 43 43 44 44 45 45 46 47 48 48 48 49 49 50 51 51 52 53 54 54 55 56 57 58 57 58 59 61 62 62 63 63 60 56 53 52 50 49 48 48 48 48 48 49 49 49 50 51 52 52 52 52 52 52 53 52 50 48 47 47 47 48 48 46 45 45 44 43 43 43 44 43 41 39 38 38 37 35 34 33 32 32
43 43 44 45 45 46 46 46 47 48 49 49 50 50 50 51 52 53 53 54 54 55 56 57 58 59 59 59 59 60 62 63 63 63 63 61 57 54 52 51 49 48 48 48 48 49 50 50 50 51 52 52 52 52 52 52 52 53 52 50 48 46 46 46 48 48 47 46 46 46 44 43 43 43 43 42 40 38 38 38 37 35 35 34 33
44 44 45 46 46 47 48 48 49 49 50 51 52 52 52 53 53 54 55 56 56 57 58 59 60 60 60 61 62 62 64 65 65 64 63 62 59 55 52 50 49 48 49 49 50 50 51 51 51 51 52 53 53 52 52 52 52 52 51 49 47 45 45 46 47 48 48 47 46 46 45 44 44 43 43 43 42 40 38 38 38 37 36 35 34
45 46 47 48 48 48 49 49 50 50 51 52 53 53 54 55 55 56 57 57 58 59 60 61 62 62 63 63 64 64 64 65 65 64 64 63 59 55 52 50 48 49 50 50 51 52 52 52 52 52 53 53 53 52 52 52 51 50 49 47 45 45 45 46 46 47 47 47 47 47 46 44 44 44 43 43 43 41 38 38 38 38 37 37 36
46 48 48 49 49 50 50 50 51 51 52 53 54 55 55 56 57 58 58 59 60 61 62 64 64 65 66 66 66 65 65 64 64 64 64 63 59 54 51 49 49 50 50 51 52 53 53 53 52 53 53 53 53 52 51 51 50 49 48 46 44 44 44 45 46 46 47 47 47 46 45 44 43 43 42 42 42 41 39 38 38 38 38 38 38
48 49 49 50 50 50 51 51 52 52 53 54 55 56 56 57 58 59 60 61 62 64 65 66 67 67 68 68 67 66 64 63 63 63 64 63 58 53 51 50 50 51 51 52 53 53 53 53 53 53 53 53 52 52 51 50 49 48 47 46 44 44 43 44 45 46 46 46 45 45 44 44 43 42 41 41 41 41 39 37 37 38 39 39 38
49 49 49 49 49 50 51 51 52 53 53 54 55 56 57 58 59 61 62 63 64 66 68 69 69 69 69 68 67 65 64 63 62 62 63 61 56 53 52 52 52 52 53 53 54 54 54 53 53 53 53 53 52 51 50 49 48 47 46 45 44 43 43 43 45 46 46 45 44 43 42 42 41 41 40 40 40 39 38 37 36 36 38 39 39
48 48 48 48 49 50 51 51 52 53 53 54 55 56 58 59 61 63 64 65 67 69 70 70 70 69 68 67 66 64 63 62 61 61 61 58 55 53 53 53 53 53 54 54 54 54 54 54 54 53 53 52 52 51 50 49 48 46 45 44 44 43 43 44 45 45 44 44 43 42 41 40 40 39 39 39 39 38 37 37 36 35 36 38 39
46 47 48 48 49 50 50 51 52 53 54 55 56 57 59 61 63 65 66 68 70 71 71 71 69 68 67 66 64 63 62 60 60 60 59 56 54 54 54 54 54 54 54 54 54 54 54 54 54 53 53 52 51 51 50 48 47 45 44 44 44 44 43 44 44 43 43 42 41 40 40 39 38 37 37 37 37 37 36 35 35 35 35 36 38
45 45 46 47 48 49 50 51 52 53 54 55 56 58 60 62 65 67 69 71 72 72 71 68 67 66 66 65 63 62 60 59 59 58 56 54 54 55 55 55 55 55 55 55 55 55 54 53 53 52 51 51 50 49 48 47 46 44 43 43 43 43 43 43 42 42 41 40 39 39 38 37 36 36 36 35 35 35 35 34 34 34 34 35 36
44 44 46 47 48 50 51 52 53 54 55 56 58 60 62 65 67 69 71 72 72 70 67 66 66 65 64 63 62 60 59 58 57 55 54 54 55 55 55 55 55 55 56 56 56 56 55 54 53 52 50 49 49 48 46 45 44 44 43 42 42 42 42 41 41 40 39 38 37 36 36 35 35 34 34 34 34 34 34 33 33 33 33 34 34
44 46 47 49 50 52 53 54 55 56 57 59 61 63 65 67 69 70 71 70 68 67 66 65 64 63 62 61 59 58 56 55 54 54 55 55 55 56 55 55 55 55 56 56 56 56 56 55 54 52 50 49 48 47 45 44 43 42 42 42 42 42 41 40 39 38 37 37 36 35 34 33 33 33 33 32 32 32 32 32 32 32 32 32 32
46 48 49 51 53 54 55 56 57 58 60 62 63 65 67 68 69 69 68 67 66 65 64 63 61 60 59 57 56 55 54 54 55 55 55 55 55 56 55 55 55 55 55 55 55 55 54 54 53 51 49 48 48 47 45 44 42 41 41 40 40 40 40 40 38 37 36 36 35 34 33 32 32 32 31 31 31 30 30 30 31 31 31 31 31
49 50 52 53 54 55 56 58 59 61 63 64 66 67 68 69 69 68 67 66 65 63 61 59 58 57 55 54 54 54 55 55 55 55 55 55 56 56 56 56 56 56 55 55 54 53 52 51 50 49 47 46 46 46 45 44 42 41 40 39 39 39 39 38 37 37 36 35 35 34 33 32 32 32 31 31 30 29 29 29 29 30 30 29 29
53 54 55 56 57 57 58 60 61 63 65 67 68 69 69 68 67 66 65 63 61 59 57 56 55 54 53 54 54 55 55 56 56 56 55 56 56 57 56 56 56 55 55 54 52 50 48 47 47 46 45 45 44 44 44 43 41 40 39 38 38 37 37 36 36 35 35 35 34 33 32 32 32 31 31 31 30 29 28 28 28 29 29 28 28
58 58 59 59 59 60 61 63 64 66 67 67 68 67 67 66 64 63 61 59 57 55 54 53 53 53 54 55 55 56 56 56 56 56 56 56 57 57 56 56 55 54 53 51 49 47 46 45 44 44 43 43 43 42 41 41 40 40 38 37 36 35 34 33 34 34 34 34 33 32 32 32 31 30 30 30 30 29 28 28 28 28 28 27 27
60 61 61 61 62 63 64 65 66 67 66 66 65 64 63 61 60 58 57 55 53 52 52 53 54 55 55 56 56 56 56 56 56 57 57 56 56 56 55 54 53 52 50 48 46 45 44 43 42 42 42 42 41 39 38 37 38 39 37 35 34 33 32 32 33 33 32 32 31 30 31 31 30 29 29 29 30 29 28 28 28 28 28 27 27
61 62 62 63 63 64 65 65 65 64 63 62 61 60 58 57 55 53 52 52 52 52 53 54 54 55 55 55 56 56 56 56 56 55 55 54 54 53 53 52 51 49 48 46 45 43 42 41 41 40 40 40 39 37 35 34 35 37 36 33 31 31 31 31 31 30 30 30 29 29 29 29 29 28 28 28 28 27 27 28 28 28 28 27 27
60 60 61 61 62 62 62 61 60 60 58 57 56 54 53 51 51 50 51 52 53 54 54 54 54 54 55 55 55 55 55 55 53 53 52 51 50 50 50 49 48 47 46 45 43 42 41 40 40 38 37 37 35 34 32 32 33 35 34 31 29 29 29 28 28 28 27 27 27 27 27 28 27 27 27 26 26 25 25 26 27 28 28 27 27
58 59 59 59 59 59 58 57 57 55 54 52 51 49 49 49 50 51 52 53 54 54 54 54 54 54 54 54 54 53 52 52 51 50 49 48 47 47 47 46 46 45 44 43 42 41 40 39 38 36 35 34 32 31 30 30 31 32 31 29 28 28 27 26 26 26 25 24 25 25 25 25 25 26 26 25 24 23 23 24 25 27 27 26 27
57 57 57 57 56 55 55 53 52 50 48 47 47 47 49 50 52 53 53 53 53 54 54 54 53 53 52 51 50 50 49 48 48 47 46 45 44 44 44 43 43 42 41 40 39 38 38 37 36 34 33 31 29 29 28 28 29 28 28 27 26 25 26 25 24 24 23 22 23 23 24 24 24 23 23 23 22 21 22 23 24 25 25 25 25
56 55 55 54 53 51 50 48 46 46 46 47 48 49 51 52 52 53 53 53 53 53 53 52 51 50 49 48 46 46 45 45 44 44 43 43 42 41 40 39 38 38 37 36 35 35 35 35 33 32 31 30 28 26 25 25 26 25 25 26 25 23 23 23 22 21 21 21 21 21 21 22 22 22 21 21 20 20 20 22 23 23 24 24 24
54 53 51 50 48 46 45 44 45 46 48 49 50 51 51 52 52 52 52 52 52 51 50 50 48 47 46 44 43 43 42 42 42 42 41 40 39 37 36 35 34 33 33 33 33 33 33 33 32 31 30 29 27 25 24 23 24 23 23 24 23 22 21 21 20 19 19 19 19 19 20 20 20 20 20 20 19 18 18 20 21 22 22 22 22
50 48 46 44 43 43 44 46 47 49 50 50 51 51 51 51 51 51 51 50 49 48 47 46 45 43 43 42 42 41 41 41 40 39 37 35 34 32 32 31 31 31 31 31 31 32 32 32 31 30 29 28 26 25 23 22 22 22 21 21 21 20 20 19 19 19 18 18 18 18 18 18 18 18 19 19 18 17 16 17 18 19 19 19 20
44 43 42 43 44 45 47 48 49 50 50 50 51 51 51 51 50 50 48 46 45 44 43 42 42 41 42 42 41 40 39 38 36 34 32 30 29 29 29 29 29 30 30 30 30 30 30 30 29 28 27 26 25 24 22 21 21 20 20 19 19 19 18 18 18 18 18 18 17 17 18 17 16 17 17 17 17 17 16 16 16 16 16 16 16
41 42 43 45 46 47 48 48 49 49 49 50 50 49 49 49 48 47 45 44 42 42 41 41 41 41 40 40 38 36 34 32 31 29 28 27 27 27 27 27 28 28 28 28 28 28 28 27 26 26 25 24 23 22 21 20 19 19 18 18 17 17 17 17 17 17 17 17 17 17 17 16 16 16 16 16 16 15 15 15 15 15 15 15 15
43 45 46 47 47 48 48 48 48 48 48 48 48 47 46 44 44 44 43 42 42 41 41 40 40 39 38 36 34 32 30 28 28 27 27 27 27 27 28 28 28 28 28 28 28 27 26 25 24 23 23 22 21 20 20 19 18 17 17 17 16 16 16 16 17 17 17 17 16 16 16 16 15 15 14 14 13 13 13 13 13 14 14 14 14
46 46 47 47 48 48 48 48 47 47 46 45 44 44 43 42 41 40 41 41 41 40 39 38 37 35 34 33 31 30 28 27 28 28 28 29 29 30 30 30 30 30 30 29 28 27 26 25 23 22 20 19 19 18 18 17 16 16 16 15 15 15 15 15 16 16 16 16 16 15 15 15 14 14 13 12 12 11 11 11 12 12 12 13 13
47 47 47 47 47 47 47 46 45 44 43 41 40 40 40 40 39 39 38 38 38 37 36 35 34 33 31 30 29 29 29 29 29 29 30 30 30 31 32 32 32 32 31 30 28 27 25 24 23 21 19 18 17 17 16 16 15 15 15 14 14 14 14 14 14 15 15 15 15 15 14 13 13 12 11 11 11 10 10 9 10 10 10 10 11
47 47 47 46 46 45 44 43 42 41 39 38 37 36 35 36 37 37 37 36 35 34 33 33 32 31 30 28 28 28 28 29 29 29 30 30 31 32 32 32 32 32 31 29 27 26 25 23 22 20 19 18 17 16 16 15 14 14 13 13 13 13 13 12 13 14 14 14 13 13 13 12 11 11 10 10 10 10 9 8 8 8 8 8 8
46 46 46 45 44 43 42 41 39 38 36 36 35 34 33 33 33 33 33 33 32 32 31 30 29 29 29 28 28 27 27 28 29 29 30 31 31 32 33 33 32 31 30 28 26 24 23 21 20 19 18 17 17 16 16 15 14 13 13 12 13 13 12 12 12 12 12 12 12 12 11 11 10 10 9 9 9 9 9 8 7 7 7 7 7
45 45 44 43 42 40 39 38 36 35 34 33 33 33 32 31 30 29 29 29 30 30 30 29 28 27 27 28 28 28 29 29 29 30 30 31 31 32 32 33 33 32 30 28 25 23 21 20 19 18 17 17 16 16 16 15 14 13 13 12 12 12 12 12 12 11 11 11 11 10 10 10 9 9 8 8 8 8 8 7 7 6 6 6 6
44 43 42 40 39 38 36 35 33 33 32 32 32 31 31 30 30 29 28 27 27 27 28 28 27 27 27 27 28 29 30 30 30 31 31 31 32 32 32 32 32 31 29 27 24 22 20 19 19 18 17 17 16 16 15 15 14 13 13 12 12 12 11 11 11 11 10 10 9 9 9 9 8 8 7 7 7 7 7 7 6 6 5 5 5
42 41 39 38 37 35 34 33 32 31 31 30 30 30 30 29 29 29 29 28 27 26 26 27 27 28 27 28 28 29 30 31 31 32 32 33 33 33 32 31 30 28 27 25 23 21 20 19 18 18 18 17 16 16 15 15 14 13 13 12 12 11 11 11 11 10 10 9 8 8 7 7 7 6 5 6 6 6 6 6 5 4 4 4 4
39 38 37 35 34 33 32 31 31 30 30 29 29 29 29 29 29 29 29 29 28 28 27 27 27 27 28 28 29 29 30 31 31 31 32 33 33 33 32 30 28 26 24 23 21 20 19 19 18 18 17 17 16 16 15 15 14 13 12 12 11 11 10 10 10 9 9 8 7 6 6 5 5 5 4 4 5 5 5 4 4 3 3 3 3
37 36 35 34 32 32 31 31 30 30 29 29 28 28 28 29 29 29 29 29 28 28 28 27 27 27 27 28 28 29 29 30 30 31 32 32 32 32 31 29 26 24 22 21 20 19 19 19 18 18 17 16 16 16 15 14 13 12 12 11 10 10 9 9 8 8 7 7 6 5 4 4 3 3 3 3 3 3 3 3 2 2 2 2 2
36 35 33 32 31 31 30 30 30 29 29 29 29 29 29 29 29 29 29 29 29 29 29 29 29 28 28 28 28 28 28 28 29 29 30 30 30 30 28 25 23 22 21 20 19 19 19 18 18 17 17 16 16 15 14 14 13 12 11 10 9 9 8 8 7 6 6 5 5 4 3 2 1 2 2 2 2 2 2 2 2 2 2 2 2
35 34 33 32 31 30 30 29 29 29 29 29 29 29 29 29 29 29 29 29 29 29 29 29 29 30 29 29 28 28 27 27 27 27 28 29 29 27 25 22 21 20 20 19 19 19 18 18 17 17 17 16 15 14 14 13 12 11 10 8 8 7 6 6 6 5 4 4 3 2 1 0 1 1 1 0 1 1 2 2 2 3 3 3 4
34 33 32 31 31 30 30 30 30 30 30 30 30 30 30 30 30 30 30 30 29 30 30 29 30 30 30 29 29 28 27 27 27 28 28 28 27 24 21 20 20 19 19 18 18 18 18 17 17 17 16 16 15 14 13 12 11 9 8 7 6 5 4 4 3 3 3 2 2 1 1 1 1 1 1 2 2 3 3 3 3 4 4 5 6
33 33 32 32 31 31 30 30 30 31 31 31 31 31 31 30 30 30 30 30 30 30 30 30 30 29 29 29 29 28 28 28 28 28 28 27 24 21 20 19 19 19 18 18 18 18 18 17 16 16 16 15 14 13 12 11 10 9 7 6 5 4 3 3 3 2 2 2 2 1 1 2 2 2 3 3 4 4 4 4 5 6 6 6 7
34 33 33 32 32 32 31 31 31 32 32 32 32 32 32 31 30 30 30 30 30 29 29 29 29 28 28 28 27 27 27 27 27 27 27 25 22 20 19 19 19 19 18 18 18 17 17 16 15 14 14 14 13 13 12 11 10 8 7 6 5 5 4 4 4 3 3 3 3 2 2 3 3 4 5 5 5 6 6 7 7 7 7 7 7
35 34 34 34 33 33 33 32 32 32 33 33 33 33 32 32 31 30 30 29 29 29 29 28 27 27 27 26 26 26 26 26 26 26 24 21 19 19 19 19 18 18 18 17 17 16 16 15 14 13 13 13 13 12 11 10 10 9 8 7 6 6 6 6 5 5 4 4 4 4 4 5 5 6 7 7 7 8 8 8 7 7 7 7 7
36 35 35 35 34 34 34 34 33 33 33 33 33 33 32 32 30 30 29 28 28 28 28 27 26 26 25 25 25 24 24 25 25 23 20 18 18 18 18 17 17 17 17 16 16 16 15 14 13 13 13 13 13 12 11 11 10 9 9 8 8 7 7 7 7 7 6 6 6 6 7 7 8 8 9 9 9 8 8 8 7 8 7 7 7
37 36 36 35 35 34 34 34 33 33 33 32 32 32 31 31 30 29 28 27 27 27 26 26 26 25 24 24 23 23 23 24 22 19 17 17 17 18 17 17 16 16 16 16 15 15 15 14 13 13 13 13 13 12 12 11 11 10 10 10 9 9 9 9 8 8 8 8 8 9 9 10 10 10 10 9 9 8 8 8 8 8 8 8 9
37 36 36 35 35 34 34 33 32 32 32 31 31 31 30 30 29 28 27 26 26 25 25 25 24 23 23 22 22 22 23 22 19 16 16 17 17 17 17 16 15 15 15 15 14 14 14 13 13 13 13 13 13 13 13 13 12 12 12 12 11 11 11 11 11 10 10 10 11 11 11 10 10 10 9 9 9 8 8 8 8 8 9 9 10
36 36 35 35 34 33 33 32 31 31 30 30 29 29 28 28 27 26 26 25 24 24 24 23 22 21 21 21 21 21 21 18 15 15 16 16 16 16 15 15 15 14 14 14 14 14 14 13 13 13 13 13 14 14 14 14 14 14 14 14 13 13 13 13 13 12 12 12 11 11 10 10 10 10 10 10 9 9 9 9 9 10 10 11 10
35 35 34 34 33 33 32 31 30 29 29 28 27 27 26 26 25 24 24 23 23 22 22 21 20 20 20 19 20 20 18 15 13 15 16 16 15 15 14 14 13 13 13 13 14 13 13 13 13 14 14 14 15 15 15 15 15 15 15 14 14 14 14 13 13 12 12 11 11 10 10 10 10 10 10 10 10 9 10 10 11 11 12 12 12
35 34 33 33 32 32 31 30 28 28 27 26 25 25 25 24 23 23 22 21 21 21 20 19 19 18 18 19 19 18 15 12 13 15 15 15 15 14 13 13 12 12 12 13 13 13 14 14 14 14 14 14 15 15 14 14 14 14 14 14 13 13 13 12 12 11 11 10 10 10 10 10 11 10 10 10 10 10 11 11 12 13 13 13 13
34 33 33 32 31 30 29 28 27 26 25 24 23 23 23 22 21 20 20 19 19 19 18 18 17 17 17 18 18 15 12 11 13 14 14 14 14 13 12 12 12 11 11 12 13 13 14 14 14 14 14 14 14 14 13 13 13 12 12 12 12 12 11 11 11 11 11 10 10 10 11 11 11 11 11 11 11 11 12 12 13 14 14 14 15
34 33 31 30 29 28 27 26 25 24 23 22 22 21 20 19 19 18 17 17 17 16 16 16 16 16 17 17 15 12 10 12 13 14 14 14 13 13 12 11 11 11 11 12 12 13 13 13 13 13 13 13 12 12 12 11 11 11 11 11 11 12 12 11 11 11 10 10 11 11 11 11 11 11 12 12 12 12 13 13 14 14 14 15 17
Wind_Direction
296 296 295 294 294 294 294 294 294 295 295 296 297 299 300 302 303 304 305 304 304 305 305 305 305 306 308 310 312 313 314 315 315 315 314 310 306 302 299 297 296 295 294 295 295 295 295 296 297 297 296 296 296 296 296 296 295 294 293 291 289 288 286 286 286 287 285 282 281 281 279 278 278 277 274 272 272 271 268 265 262 260 258 256 254
295 295 294 293 293 292 293 294 294 294 294 295 296 297 298 299 300 302 302 302 302 302 302 302 303 304 306 308 310 310 311 314 314 314 314 310 305 302 299 297 296 294 294 295 295 295 295 296 297 297 297 296 296 296 296 295 294 293 292 291 289 287 286 284 285 285 284 282 280 280 279 277 277 277 275 272 271 271 268 264 261 258 256 254 253
294 293 292 292 292 292 293 294 294 294 293 293 294 295 296 296 297 299 300 300 300 300 300 301 301 302 304 306 306 307 309 311 313 313 313 310 304 301 299 297 296 295 294 295 295 295 296 297 297 297 297 297 297 296 295 294 294 293 292 292 290 287 285 283 283 283 283 281 279 279 278 277 276 276 275 273 271 270 267 263 259 257 255 252 251
292 292 292 292 292 292 293 293 292 292 292 292 292 292 293 294 295 296 298 298 298 299 299 299 299 300 301 303 303 304 305 307 309 311 312 310 305 300 298 297 295 295 295 296 296 296 296 297 297 297 297 297 297 296 295 294 293 293 293 292 290 288 284 282 282 283 282 280 279 278 278 276 275 275 275 273 271 269 267 263 259 256 254 252 249
291 291 292 292 292 293 292 291 291 290 290 289 289 290 291 292 293 295 296 297 297 298 297 297 297 298 299 300 301 301 301 302 305 307 309 309 305 299 297 296 295 295 296 296 296 296 297 297 297 298 298 298 297 296 295 294 294 294 293 292 290 287 284 282 282 282 281 280 279 278 277 277 276 274 274 273 271 268 266 264 260 256 253 252 249
291 290 291 291 292 292 291 290 288 288 288 288 288 289 289 290 292 293 295 296 297 297 296 296 296 297 298 298 299 299 299 300 302 304 307 308 304 299 297 297 296 296 296 296 297 297 297 298 298 298 298 298 297 296 295 295 295 294 294 292 290 287 284 282 282 281 280 280 279 278 278 277 276 275 274 273 271 268 266 265 262 258 254 251 249
290 289 289 289 290 290 289 288 287 287 287 287 288 288 288 289 290 292 294 295 296 296 295 295 296 297 297 297 298 299 299 300 301 302 305 306 303 298 298 298 297 297 297 297 297 297 297 298 298 299 299 298 297 297 296 295 295 294 294 293 291 288 285 283 282 281 280 280 279 278 278 277 276 275 275 274 272 270 267 265 263 259 256 252 250
288 288 287 288 288 288 288 287 287 287 288 287 287 287 287 288 290 292 293 294 295 295 295 295 296 297 297 297 298 299 299 300 300 302 305 304 300 298 298 298 298 298 297 297 297 297 297 298 298 299 298 298 297 296 295 295 294 294 293 292 290 288 286 283 282 281 281 281 280 280 278 278 277 276 276 274 272 270 269 267 264 261 257 254 252
288 288 287 288 288 288 287 287 288 288 288 287 287 287 287 288 289 291 293 294 294 294 295 295 296 296 296 297 298 299 300 300 300 303 304 302 298 298 298 298 298 298 297 297 297 297 297 298 298 298 298 297 297 296 295 294 294 293 292 290 289 287 285 283 283 282 282 282 281 280 279 278 277 277 276 275 273 271 269 267 266 263 259 255 253
289 288 288 288 288 287 288 288 288 288 288 287 287 287 287 288 289 291 293 293 293 293 294 295 295 296 297 298 299 299 300 300 301 303 303 300 298 298 298 297 297 297 296 296 296 297 297 297 298 297 297 297 296 295 295 294 293 292 290 288 287 286 284 283 283 283 283 283 282 281 279 278 277 277 276 275 273 271 269 268 266 265 262 257 254
291 290 289 289 289 289 290 290 290 289 289 288 288 288 288 289 290 291 292 292 292 293 294 295 296 297 299 299 299 300 301 301 302 302 301 299 299 299 298 298 298 297 296 296 296 296 296 296 297 297 296 296 295 294 294 293 292 290 288 287 286 285 284 283 283 283 283 283 282 281 280 279 278 277 275 274 273 271 269 268 266 265 264 260 256
294 293 292 291 291 292 292 291 291 290 290 289 289 289 289 289 290 291 291 291 292 294 296 298 298 299 299 300 301 302 302 302 302 301 301 300 300 299 299 299 298 298 297 297 297 296 296 296 297 297 296 295 294 294 293 291 290 289 287 286 284 284 284 283 283 283 283 283 282 281 281 280 278 277 275 273 272 270 269 268 267 265 263 262 258
295 294 294 293 293 293 292 292 291 291 291 291 290 290 289 289 289 290 291 292 295 297 299 299 299 300 300 302 302 302 302 302 302 302 301 301 300 300 300 299 299 299 298 298 298 298 298 297 297 298 297 296 294 293 292 291 289 288 286 285 284 283 283 283 283 283 282 282 281 281 280 279 278 277 275 273 272 271 270 268 267 266 264 262 260
296 295 295 295 294 294 293 293 293 292 292 292 291 290 290 289 290 291 294 296 298 300 300 300 300 301 302 303 303 303 303 303 303 302 302 301 300 300 300 300 300 300 299 299 299 299 299 299 298 298 297 296 295 294 292 291 289 287 285 284 282 282 282 283 283 282 282 281 281 280 279 278 277 276 274 273 272 271 270 269 267 266 264 263 261
296 296 296 295 295 294 294 294 294 293 293 293 292 291 291 291 293 295 298 300 300 300 300 301 302 303 303 303 303 304 304 303 303 303 302 301 301 301 301 300 300 300 300 301 301 301 301 300 299 298 297 295 294 293 292 291 289 287 285 283 282 281 280 281 282 282 282 280 279 279 278 277 276 275 274 273 272 271 270 268 267 266 264 263 261
295 295 295 295 295 295 295 294 294 294 294 293 292 292 293 295 297 299 300 300 301 301 302 303 303 304 304 304 304 304 304 303 303 303 302 302 301 301 301 301 301 301 301 302 302 302 301 300 299 298 296 294 293 292 291 290 289 287 285 284 282 281 281 281 281 281 280 279 279 279 278 277 276 275 274 273 271 271 270 268 267 265 264 262 260
294 294 295 295 295 295 294 294 294 293 293 293 293 295 296 298 300 300 301 301 302 303 304 304 304 304 305 305 305 304 304 304 303 303 303 302 302 302 302 302 302 302 303 303 303 303 301 300 298 297 295 293 292 291 291 291 290 288 286 284 283 282 282 281 279 278 278 278 279 279 278 277 276 275 274 273 272 271 270 269 267 266 265 263 260
293 294 294 294 294 294 293 293 293 293 294 295 296 298 299 300 301 302 302 303 304 304 305 305 305 306 306 306 305 305 305 305 305 304 304 304 304 303 303 303 304 304 304 304 304 303 301 300 298 296 294 293 292 292 292 291 289 288 286 285 284 283 281 279 278 279 279 279 279 279 278 277 276 275 274 273 272 271 269 269 268 267 266 264 261
293 293 293 293 293 293 293 293 294 295 297 298 299 300 301 302 303 303 304 305 305 305 306 306 307 307 307 307 306 306 306 306 306 306 306 306 306 306 306 306 306 306 306 305 304 303 302 300 298 296 295 294 294 293 292 289 287 286 286 286 285 283 281 280 279 279 279 280 280 279 277 277 276 275 274 272 272 271 269 268 268 267 266 264 262
295 294 294 294 294 294 295 296 298 299 300 301 302 303 304 304 304 305 305 306 306 307 307 307 308 308 308 308 307 307 307 307 307 308 308 309 309 308 308 308 308 307 307 307 305 304 302 300 298 297 296 295 295 293 291 288 286 285 286 287 286 284 282 282 281 280 280 280 279 278 278 277 277 276 274 272 272 271 269 268 267 266 265 263 262
296 295 295 296 297 298 299 300 301 302 303 304 305 305 305 306 306 307 307 307 308 308 308 309 309 309 309 309 309 309 309 309 310 310 311 311 311 311 310 310 310 309 309 308 307 305 303 301 300 300 298 297 296 293 290 287 285 286 287 289 288 286 284 283 282 282 282 281 280 279 278 278 277 276 275 274 274 272 269 267 265 264 264 263 263
298 298 299 300 301 302 302 303 304 305 306 306 307 307 307 308 308 308 308 308 309 310 310 310 310 310 310 311 311 311 312 312 312 312 312 313 313 312 312 312 312 311 311 310 309 307 305 304 304 303 302 301 298 294 291 288 287 288 290 290 290 289 288 287 286 286 285 284 282 281 280 278 277 276 275 275 274 272 268 266 264 264 264 264 264
301 302 302 303 304 305 306 307 308 308 308 308 308 308 308 308 309 309 309 310 311 311 311 311 311 312 312 313 314 314 313 313 314 314 314 314 314 314 314 314 314 314 314 313 311 310 309 308 308 307 305 304 301 296 293 291 289 290 291 291 291 291 290 290 290 289 287 285 284 283 282 281 279 278 277 274 272 270 268 267 266 265 265 265 265
304 305 306 307 308 309 309 310 310 309 309 309 309 309 309 309 310 310 311 312 312 312 312 313 314 314 315 315 315 315 315 315 315 315 316 316 317 317 317 317 317 317 316 315 314 312 312 311 311 310 308 306 303 299 296 293 291 291 292 292 294 294 293 293 292 291 288 285 283 282 282 281 281 282 280 277 274 270 268 267 268 268 269 269 269
307 308 309 310 311 311 311 311 310 310 310 310 310 310 310 311 311 312 312 313 313 314 315 316 316 317 317 317 317 317 317 317 317 317 318 319 320 321 320 320 320 319 318 317 316 314 313 312 311 310 309 308 305 302 299 295 291 291 291 291 293 295 295 295 294 293 291 288 286 284 283 283 283 282 280 280 279 277 273 272 272 271 271 272 273
311 312 312 312 312 312 312 311 311 310 310 310 311 311 312 312 313 313 314 315 316 317 318 319 319 319 318 318 318 318 318 318 319 320 322 323 324 324 323 322 322 322 321 320 318 316 314 312 311 310 309 307 305 303 299 295 291 290 289 290 291 292 293 293 291 291 290 289 288 287 286 286 285 283 283 283 284 283 282 281 279 277 275 273 273
313 313 313 313 313 312 312 311 311 311 311 312 313 314 314 314 315 315 317 318 319 320 320 320 320 319 319 319 320 321 322 322 323 325 326 326 326 325 325 325 325 325 324 322 320 318 316 313 312 310 309 307 305 302 299 296 293 290 288 288 288 288 289 288 288 288 288 288 289 289 289 288 288 287 288 289 289 289 287 284 281 280 278 276 274
314 314 313 313 312 311 311 311 311 312 313 314 315 315 316 317 318 319 320 320 321 321 322 321 322 322 323 323 324 325 327 328 329 329 329 329 329 328 329 329 329 329 328 326 324 321 318 316 314 312 310 308 306 303 301 299 296 293 290 288 287 285 284 284 285 286 287 288 290 290 291 292 292 292 294 294 294 292 289 285 283 280 278 276 274
314 314 313 312 311 311 311 312 313 315 316 317 317 318 318 320 321 322 323 323 323 323 324 325 326 327 328 328 329 330 331 332 332 332 332 332 332 332 332 332 332 332 331 329 327 325 322 320 318 316 314 311 309 307 305 304 301 299 295 292 288 285 283 283 284 284 285 287 289 291 293 295 296 298 299 298 295 293 289 286 284 281 278 277 276
313 312 311 311 311 312 313 315 316 317 317 318 320 322 322 322 323 323 324 325 325 327 328 329 330 331 332 332 333 333 333 334 333 333 334 334 333 333 333 333 333 333 332 330 329 326 324 322 321 320 319 317 314 312 310 308 306 303 300 297 293 288 285 284 284 283 284 286 289 291 294 296 298 301 301 300 298 295 294 292 288 284 282 280 278
312 311 311 312 313 314 316 317 317 318 319 320 322 323 324 325 324 325 326 327 328 330 331 332 333 333 333 333 333 333 332 332 332 332 332 333 333 333 333 333 333 332 332 331 330 328 326 324 323 322 322 321 319 317 314 312 311 307 304 301 297 294 291 288 285 284 285 286 287 290 293 295 298 299 301 301 300 297 296 295 292 288 284 280 278
312 312 313 315 316 317 317 318 318 319 320 322 322 323 324 325 326 327 328 330 331 332 333 333 333 333 332 332 331 330 329 329 330 331 332 333 333 333 333 332 332 332 332 331 331 329 327 325 324 323 323 322 320 319 317 316 314 310 308 304 300 298 297 293 289 288 287 286 287 288 291 293 295 299 301 301 301 300 299 298 295 291 286 280 275
314 315 316 317 317 318 318 319 320 320 321 322 323 324 326 327 328 330 331 332 332 333 333 333 333 332 331 329 329 329 329 329 330 331 332 332 332 333 333 333 333 333 333 333 333 332 330 328 326 325 325 324 323 322 320 319 317 314 312 309 305 302 300 297 296 294 292 290 289 289 290 291 292 296 299 301 303 305 305 305 302 296 289 284 279
317 317 318 318 318 318 319 320 320 321 322 323 324 326 328 330 331 332 333 333 333 332 332 333 332 331 330 330 329 329 329 329 330 331 331 332 333 334 335 335 334 333 333 334 335 335 333 332 330 329 328 328 327 326 324 323 321 319 316 313 310 307 304 302 301 300 298 297 296 294 293 292 292 294 298 302 305 307 306 306 305 301 298 294 286
319 318 318 318 318 319 320 320 320 321 322 324 326 329 330 332 332 333 333 333 332 332 332 333 332 331 331 331 330 329 329 330 331 331 332 333 334 335 336 336 335 334 333 334 336 336 336 336 334 333 332 332 330 329 327 326 324 322 319 316 313 311 309 307 305 305 305 305 304 301 298 296 296 298 299 300 303 307 309 310 311 311 311 304 291
319 319 319 319 319 319 320 320 321 322 324 326 329 330 331 332 332 332 332 332 332 332 332 333 333 332 332 331 331 331 331 331 331 332 332 333 334 335 336 336 335 335 335 336 338 338 338 339 339 337 336 333 332 331 330 329 328 325 321 318 315 312 311 309 308 307 308 309 309 307 302 302 302 302 300 302 306 312 317 320 322 322 317 306 295
320 320 320 320 320 320 320 320 321 323 325 327 329 330 331 331 331 331 331 331 331 331 331 332 332 332 332 332 332 332 332 332 332 333 333 334 335 335 336 336 337 337 338 339 339 340 341 342 341 339 337 335 334 333 332 331 330 327 323 320 316 313 311 310 309 310 312 313 314 312 310 310 309 303 303 308 315 320 324 326 335 338 326 320 317
321 320 320 320 320 320 320 320 322 324 326 327 329 329 330 330 329 329 329 329 329 330 331 331 331 331 332 332 332 332 333 333 333 333 334 334 335 335 336 337 338 340 341 341 341 343 344 345 343 340 338 338 338 337 335 333 332 330 328 324 320 316 314 310 310 315 319 321 322 322 323 321 306 293 301 308 316 332 345 348 354 4 3 351 344
321 320 319 319 319 319 320 321 322 324 325 326 327 328 328 328 328 327 327 328 329 330 331 332 332 332 332 333 333 334 334 333 333 334 334 335 336 337 338 340 341 343 343 344 344 345 346 346 344 341 340 341 343 343 341 339 337 335 333 330 326 323 320 317 318 325 335 341 342 343 340 303 241 246 275 340 24 33 37 30 22 21 21 17 9
320 320 319 319 319 319 320 321 323 324 324 325 325 325 325 326 326 326 326 327 328 329 331 332 333 333 333 334 334 335 335 335 336 336 337 338 339 340 341 343 345 346 347 348 348 348 350 349 347 344 344 346 348 349 348 345 344 344 343 341 339 336 334 334 340 349 3 16 25 59 146 172 182 161 108 86 75 66 59 54 47 38 30 27 21
320 319 319 319 319 319 320 321 321 322 323 323 323 323 324 324 325 325 325 326 328 330 332 333 334 334 335 335 336 336 337 338 338 339 339 340 342 344 346 348 348 349 351 352 352 353 354 354 351 349 349 351 354 356 356 355 355 358 0 3 6 9 15 22 32 43 57 73 93 119 137 143 135 113 98 88 80 73 63 55 49 42 36 34 29
319 318 318 318 318 319 320 320 321 321 321 321 321 321 322 323 324 325 325 327 329 331 332 334 335 335 335 336 336 337 338 338 339 340 341 343 346 348 349 350 351 352 355 356 357 358 359 358 357 355 356 358 2 4 6 7 9 14 20 26 32 42 52 62 71 79 87 97 105 114 119 118 111 99 89 82 74 66 59 52 48 44 39 38 36
318 318 317 318 318 319 319 320 320 320 320 320 320 320 321 323 324 325 326 328 329 330 332 334 335 336 336 336 337 337 338 339 340 341 343 346 349 350 350 351 353 356 358 360 1 2 3 3 3 3 4 7 11 13 16 20 24 29 36 43 51 61 70 78 83 88 94 100 104 107 108 104 96 87 78 73 66 60 55 52 49 46 41 39 38
317 317 317 317 318 318 318 319 319 319 319 319 319 320 321 322 324 325 327 328 329 331 332 334 336 336 336 336 337 338 339 340 341 343 347 349 351 351 352 355 358 1 2 3 5 7 8 8 9 11 13 16 19 23 27 32 37 42 48 56 63 71 78 84 86 89 91 97 100 100 96 90 84 78 71 65 60 57 55 52 48 45 41 36 37
316 316 317 317 317 318 318 318 318 318 318 318 319 319 320 321 323 325 327 329 330 332 333 335 337 336 336 337 338 338 340 342 344 347 350 351 352 354 356 359 3 6 7 8 9 12 15 15 15 18 21 24 29 34 38 43 47 52 57 62 68 75 79 83 85 86 89 92 92 90 86 80 75 70 66 63 60 58 55 51 46 43 41 39 41
317 317 317 317 317 317 317 318 318 318 318 318 319 319 320 322 324 326 328 330 332 333 335 336 337 336 337 338 339 340 342 344 348 351 353 354 356 358 359 3 7 10 12 14 16 19 21 22 23 26 31 35 40 45 48 51 55 59 63 67 71 75 78 81 83 84 85 85 83 80 76 72 68 67 65 62 60 56 53 50 48 47 48 48 48
318 318 318 318 317 317 317 318 318 318 318 318 319 319 320 322 325 327 329 331 333 335 336 337 337 337 338 340 340 342 345 349 352 355 356 357 359 1 4 8 12 14 16 20 22 25 28 30 32 36 40 44 48 51 53 55 59 62 65 68 72 74 76 79 80 80 79 78 76 74 71 68 66 64 61 59 58 56 54 54 54 53 55 57 57
318 318 318 317 317 317 317 318 318 318 318 318 319 320 321 323 326 328 330 332 334 336 337 337 337 339 340 342 343 345 349 354 357 358 358 0 2 6 10 14 16 18 21 25 28 31 35 38 41 44 47 50 52 54 56 58 60 63 65 67 69 71 73 75 76 76 76 75 72 70 68 64 61 60 58 58 59 59 58 57 58 58 59 62 66
318 318 318 317 317 317 317 318 318 318 318 320 321 322 323 325 327 329 331 333 335 337 337 338 339 341 342 344 345 349 354 359 360 359 0 3 6 10 15 19 21 23 27 30 33 37 41 43 46 48 50 51 53 54 55 56 59 61 64 67 69 71 73 74 76 75 73 71 68 65 62 61 59 60 62 63 63 63 62 61 60 60 60 63 68
319 319 319 318 318 318 318 318 318 318 319 321 323 324 325 326 328 330 332 334 336 337 338 339 342 344 345 346 349 354 0 3 1 0 3 7 10 14 19 22 25 28 32 35 39 42 44 46 48 49 50 51 52 53 54 56 59 62 66 68 71 72 73 73 73 72 69 67 64 61 60 61 62 64 67 68 67 67 65 62 60 61 61 63 65
320 320 320 320 320 319 319 319 319 319 321 324 325 325 326 328 329 331 334 336 338 339 341 342 345 347 348 349 353 1 6 4 2 3 7 11 13 18 23 26 29 33 37 40 43 45 46 46 47 48 49 51 52 53 54 56 59 63 66 68 69 71 71 70 69 68 65 63 62 62 63 66 68 69 71 71 69 67 65 63 63 64 64 63 61